TIME,DELAY(SENSOR),PRES,T(CTD),SAL,OXYGEN,RAWTEMP,T(OPTODE),TCPHASE,FLUOR,BETA(BETA700),BETA(BETA412),BETA(BETA440),CDOM,C(CSC),ED(ED412.40),ED(ED444.00),ED(ED489.70),ED(ED554.30),LU(LU411.80),LU(LU443.40),LU(LU489.60),LU(LU554.10),COMP,TILTX,TILTX(TILTY),CHECK
1364507394,5809,497.2300109863281000,6.8362002372741700,34.1236000061035160,83.6484603881836000,592.5418090820312000,6.8249301910400390,48.3759803771972660,52,104,88,79,77,14852,2147748708,2147429622,2148006720,2147873005,2147627017,2147080941,2148247725,2147199616,2275,4,13,46792
1364507523,5809,486.7000122070312500,7.0515999794006350,34.1212997436523440,88.7938308715820300,585.9411010742188000,7.0374889373779300,47.6908798217773440,51,103,91,80,77,14856,2147745453,2147426642,2148004845,2147871405,2147626011,2147081389,2148244379,2147196187,1346,4,13,21042
1364507662,5810,475.9599914550781000,7.1999998092651370,34.1106986999511700,98.0799636840820300,581.4257812500000000,7.1826629638671875,46.6063117980957000,52,103,86,80,79,14855,2147748836,2147423616,2148005760,2147875218,2147627273,2147075904,2148242258,2147197494,346,4,13,46913
1364507822,5807,462.7399902343750000,7.3660001754760740,34.0987014770507800,106.1288986206054700,575.3314819335938000,7.3783111572265625,45.6706008911132800,51,103,85,80,76,14853,2147742226,2147425746,2148007579,2147875117,2147625270,2147076050,2148246262,2147199917,3179,4,13,40073
1364507937,5810,452.0199890136719000,7.7290000915527340,34.0833015441894500,117.2244033813476600,565.2576293945312000,7.7009959220886230,44.4035682678222660,52,102,86,81,77,14857,2147744676,2147423341,2148006336,2147874770,2147624502,2147077833,2148242852,2147201462,3088,4,13,7161
1364508066,5809,440.8999938964844000,7.8783998489379880,34.0623016357421900,138.2510986328125000,560.0233154296875000,7.8683152198791500,42.3968696594238300,50,102,85,80,75,14856,2147742134,2147420946,2148005165,2147874075,2147623542,2147082578,2148236306,2147199387,2791,4,13,56300
1364508193,5804,430.6300048828125000,8.1218996047973630,34.0601005554199200,150.2335968017578000,552.6002807617188000,8.1051959991455080,41.2665786743164060,50,102,88,79,76,14859,2147740635,2147422976,2148004397,2147873115,2147621339,2147080109,2148240256,2147201234,2408,4,13,40361
1364508332,5809,419.9599914550781000,8.4864997863769530,34.0559005737304700,171.5386962890625000,541.2354125976562000,8.4669837951660160,39.4404106140136700,50,100,89,80,72,14863,2147740352,2147425289,2148004041,2147871753,2147619620,2147088192,2148236818,2147201590,1468,3,13,47255
1364508469,5810,408.2600097656250000,8.8118000030517580,34.0682983398437500,181.7492980957031200,530.6240234375000000,8.8038539886474610,38.5376091003418000,50,101,85,79,73,14863,2147736612,2147427885,2148004178,2147874614,2147617883,2147086985,2148232749,2147201124,452,4,13,28874
1364508584,5808,396.7300109863281000,9.1346998214721680,34.0794982910156250,185.0462951660156200,520.3731079101562000,9.1284465789794920,38.1373901367187500,50,103,87,78,72,14857,2147741668,2147426203,2148005604,2147871305,2147616384,2147094966,2148231268,2147202057,3047,4,13,7626
1364508687,5810,386.3299865722656000,9.5597000122070310,34.0913009643554700,188.3195953369140600,506.3796081542969000,9.5702848434448240,37.6776390075683600,49,104,85,80,71,14857,2147737353,2147425846,2148001142,2147875766,2147616630,2147091913,2148231186,2147201344,3040,3,13,64860
1364508804,5809,374.3699951171875000,10.1217002868652340,34.1046981811523440,184.8881988525390600,489.1311950683594000,10.1129903793334960,37.6133308410644500,49,105,87,80,72,14854,2147735414,2147423945,2148003172,2147877458,2147613586,2147097728,2148226038,2147201526,2297,3,13,47118
1364508919,5809,362.7699890136719000,10.5276002883911130,34.1105995178222660,188.1699066162109400,476.2076110839844000,10.5183000564575200,37.1772994995117200,49,104,86,80,72,14851,2147731593,2147423917,2148001901,2147873654,2147608694,2147102628,2148219840,2147206445,751,4,13,55928
1364509022,5811,352.1600036621094000,10.7390003204345700,34.1296997070312500,198.6195983886718800,468.8205871582031000,10.7495002746582030,36.3872489929199200,49,103,88,80,70,14852,2147732443,2147426496,2148004470,2147874020,2147609179,2147101184,2148221184,2147204260,981,3,13,55508
1364509140,5808,341.7799987792969000,11.0843000411987300,34.1501998901367200,205.7944030761718800,458.7737121582031000,11.0634002685546880,35.7854309082031250,49,103,87,79,69,14853,2147730651,2147426724,2148003456,2147875538,2147606089,2147108891,2148220324,2147206418,165,3,14,12606
1364509303,5809,330.7799987792969000,11.5260000228881840,34.1511993408203100,207.5747070312500000,444.9580993652344000,11.4940900802612300,35.4555397033691400,49,103,86,79,69,14851,2147731538,2147427190,2148012690,2147875291,2147603355,2147112027,2148222948,2147206893,436,4,13,33942
1364509459,5811,319.1700134277344000,11.7909002304077150,34.1496009826660160,208.2409973144531200,435.7531127929687500,11.7804603576660160,35.2676582336425800,48,104,90,80,69,14847,2147728466,2147432649,2148018980,2147877321,2147601206,2147114468,2148219766,2147205778,3401,3,13,18755
1364509586,5810,308.9400024414062500,12.3065004348754880,34.1806983947753900,215.8157043457031200,419.2995910644531000,12.2912197113037110,34.5720405578613300,48,101,90,80,68,14850,2147728649,2147431954,2148027794,2147877686,2147598802,2147120182,2148226002,2147209581,1473,3,13,24640
1364509757,5810,294.7500000000000000,13.0193004608154300,34.2251014709472660,215.2709960937500000,392.0473937988281000,13.1343402862548830,34.1786117553710940,48,101,87,80,67,14850,2147722770,2147437696,2148038966,2147875712,2147598107,2147129700,2148229741,2147205988,143,3,13,19354
1364509860,5810,284.1600036621094000,13.8187999725341800,34.2845993041992200,217.6405944824218800,369.8055114746094000,13.8201398849487300,33.7072982788085940,48,102,90,80,66,14847,2147722395,2147442349,2148053604,2147875008,2147595090,2147135314,2148234038,2147208612,2823,3,13,26915
1364509963,5808,272.9700012207031000,14.2059001922607420,34.3226013183593750,216.7010040283203000,357.5432128906250000,14.1974401473999020,33.5742301940918000,49,102,88,80,68,14846,2147725120,2147442934,2148063277,2147873682,2147590738,2147141092,2148231149,2147207899,2036,4,13,21437
1364510081,5807,261.4800109863281000,14.7966995239257810,34.3867988586425800,213.7646942138672000,340.3812866210937500,14.7246904373168950,33.4808006286621100,49,103,86,80,67,14844,2147721353,2147455222,2148086738,2147875776,2147588937,2147147785,2148242203,2147212845,3422,3,14,57533
1364510232,5811,251.3099975585937500,15.1023998260498050,34.4275016784668000,213.4893035888672000,328.3562927246094000,15.0936098098754880,33.3181800842285160,49,107,90,80,67,14844,2147726546,2147477641,2148156278,2147874880,2147586614,2147169124,2148271963,2147213787,3154,3,15,25692
1364510411,5812,240.1000061035156200,16.0351009368896500,34.5337982177734400,213.0923004150390600,296.8510131835937500,16.0585403442382800,32.8801994323730500,48,104,86,80,65,14837,2147718820,2147449371,2148059236,2147874130,2147582793,2147162715,2148220644,2147213010,55,3,14,47545
1364510562,5809,229.4600067138672000,16.9620990753173830,34.6458015441894500,214.1432037353515600,268.0145874023437500,16.9402103424072270,32.4097404479980500,49,107,88,79,65,14836,2147721325,2147475510,2148114761,2147874011,2147581750,2147180516,2148244973,2147212571,2757,3,14,1813
1364510709,5809,217.3500061035156200,17.4885997772216800,34.7207984924316400,214.5635986328125000,249.5023040771484400,17.5057392120361330,32.1257209777832000,50,106,88,81,65,14829,2147728164,2147505755,2148168329,2147872978,2147576841,2147199753,2148271625,2147213897,2377,3,14,26623
1364510824,5801,206.3399963378906200,17.8318004608154300,34.7719001770019500,215.3874053955078000,237.5491027832031200,17.8708000183105470,31.9143791198730470,49,110,86,81,66,14830,2147750784,2147601234,2148385801,2147873883,2147587693,2147269184,2148369444,2147219657,3209,2,14,45060
1364510927,5804,197.0899963378906200,18.3850002288818360,34.8442001342773440,213.2996063232422000,220.5489959716797000,18.3899593353271500,31.7912197113037100,51,108,90,82,65,14828,2147736832,2147524050,2148179117,2147873152,2147580964,2147222793,2148272566,2147214528,1886,2,15,54515
1364511002,5808,190.6399993896484400,18.9424991607666000,34.9112014770507800,211.3108978271484400,202.4152984619140600,18.9437999725341800,31.6504497528076170,55,111,90,81,64,14819,2147752036,2147546651,2148210989,2147872146,2147583104,2147233389,2148284598,2147217216,1565,2,15,35385
1364511057,5809,186.0200042724609400,19.1215000152587900,34.9378013610839840,210.8177032470703000,196.5390014648437500,19.1233196258544920,31.5967197418212900,54,114,85,81,64,14817,2147777078,2147620644,2148354587,2147874816,2147595702,2147294098,2148362715,2147226093,1566,2,16,22703
1364511112,5809,181.2500000000000000,19.4008998870849600,34.9747009277343750,210.5930023193359400,187.7843933105468800,19.3908195495605470,31.4897193908691400,57,114,89,84,65,14815,2147972854,2148161764,2149419465,2147878674,2147675584,2147612992,2148898112,2147262838,2051,2,15,4248
1364511167,5809,176.7400054931640600,19.5800991058349600,34.9985008239746100,210.6826019287109400,180.8190002441406200,19.6037101745605470,31.3902301788330080,57,113,89,82,63,14811,2148038427,2148275812,2149603172,2147882002,2147701001,2147687835,2148992676,2147268416,1647,2,15,36350
1364511222,5810,172.0500030517578000,20.0622997283935550,35.0509986877441400,210.3182067871093800,168.6136016845703000,19.9769096374511720,31.2449607849121100,66,119,87,83,64,14800,2148127862,2148424466,2149834505,2147879963,2147736256,2147778139,2149107154,2147276269,1286,2,15,26845
1364511277,5810,167.5899963378906200,20.1361999511718750,35.0667991638183600,211.3459930419922000,163.6510009765625000,20.1287097930908200,31.1222190856933600,66,118,88,82,63,14797,2148233920,2148600758,2150116059,2147881874,2147784365,2147882441,2149240274,2147288667,942,2,15,50211
1364511356,5810,161.5200042724609400,20.5352001190185550,35.1114006042480500,211.3834075927734400,151.2149047851562500,20.5093193054199220,30.9535293579101560,81,120,87,81,63,14788,2148427885,2148892315,2150567963,2147884434,2147864832,2148041636,2149450889,2147303186,3524,2,15,63034
1364511411,5806,158.3800048828125000,20.5783996582031250,35.1207008361816400,212.6181945800781200,149.3370971679687500,20.5668106079101560,30.8623294830322270,81,120,90,82,64,14791,2148570011,2149103661,2150883730,2147885421,2147921014,2148159058,2149592768,2147318838,3176,2,15,38311
1364511490,5809,154.3999938964843800,20.6954994201660160,35.1348991394043000,213.2805023193359400,145.7162933349609400,20.6777000427246100,30.7786293029785160,81,123,91,83,64,14784,2148781513,2149391689,2151315035,2147891300,2148008457,2148319478,2149791972,2147331428,3545,2,16,51914
1364511581,5808,150.9700012207031200,21.0235996246337900,35.1679000854492200,214.4230041503906200,135.4064941406250000,20.9935798645019530,30.5816497802734380,92,123,87,81,62,14776,2149041289,2149729353,2151803465,2147893961,2148114441,2148492196,2149990820,2147348397,833,2,15,38956
1364511746,5808,147.2500000000000000,21.2313995361328120,35.1935005187988300,216.3524017333984400,128.2339935302734400,21.2134990692138670,30.3858299255371100,97,121,88,83,62,14771,2149409014,2150140745,2152359817,2147898806,2148263826,2148678509,2150207652,2147367542,1818,1,15,12491
1364511909,5811,143.0800018310547000,21.6704998016357420,35.2294998168945300,219.6959075927734400,114.7815017700195300,21.6263294219970700,30.0375900268554700,109,120,90,83,61,14759,2149976941,2150798674,2153279469,2147908882,2148493824,2148992576,2150572013,2147399542,813,2,15,8454
1364512032,5808,138.2899932861328000,22.0545005798339840,35.2914009094238300,224.5375976562500000,101.7171020507812500,22.0277595520019530,29.6254997253417970,108,119,89,82,60,14753,2150652178,2151575990,2154322688,2147920402,2148804105,2149394422,2151005988,2147440859,454,2,15,52983
1364512111,5807,135.0399932861328000,22.3973007202148440,35.3356018066406250,231.1941986083984400,90.4984436035156200,22.3729190826416000,29.1591091156005860,116,122,85,83,60,14752,2151138422,2152183030,2155193206,2147933878,2149083053,2149751222,2151405028,2147470738,208,2,15,55092
1364512238,5808,130.8300018310547000,22.3619003295898440,35.3130989074707000,234.0346069335937500,90.8306579589843800,22.3626899719238280,29.0292091369628900,114,121,87,82,59,14737,2152018907,2153238820,2156621586,2147952896,2149554907,2150339657,2152039305,2147527542,2929,2,15,53709
1364512341,5809,126.7399978637695300,22.3283004760742200,35.2910995483398440,233.6560974121093800,92.0156478881836000,22.3262100219726560,29.0620498657226560,118,120,89,83,60,14739,2153531913,2154974189,2158945243,2147984347,2150236196,2151183670,2152979328,2147609563,2806,2,16,59278
1364512432,5812,122.8199996948242200,22.4629993438720700,35.2868995666503900,233.7050933837890600,87.9093170166015600,22.4526405334472660,29.0074996948242200,120,121,90,84,60,14727,2150727588,2150931830,2152608960,2147917568,2148954486,2149094985,2150311140,2147396726,2425,2,16,10740
1364512547,5808,119.0299987792968800,22.7026004791259770,35.2864990234375000,235.3946075439453000,79.9273376464843800,22.6985702514648440,28.8275909423828120,112,122,91,84,59,14716,2155466038,2156559926,2160194468,2148018889,2150895305,2151578989,2153203044,2147648566,3173,1,16,18685
1364512685,5809,114.6299972534179700,23.0683994293212900,35.3525009155273440,239.0175018310547000,68.2024307250976600,23.0602607727050780,28.5133991241455080,98,121,90,84,59,14727,2151678235,2151624320,2152923154,2147928237,2149459126,2149347766,2150363273,2147412470,2987,1,16,53776
1364512776,5807,110.7500000000000000,23.1336994171142580,35.3638992309570300,241.7644042968750000,66.0521469116211000,23.1266593933105470,28.3624000549316400,87,124,91,83,58,14725,2152349961,2152285147,2153537225,2147943616,2150050651,2149868617,2150778011,2147448731,2344,2,16,27335
1364512867,5804,106.1200027465820300,23.1509990692138670,35.3647003173828100,242.7904968261718800,65.3358917236328100,23.1487808227539060,28.3076896667480470,84,123,92,84,58,14719,2154698870,2154845293,2156452909,2147998363,2151667044,2151520484,2152349970,2147585188,2076,1,16,14704
1364512936,5808,102.2399978637695300,23.1777992248535160,35.3643989562988300,242.9306030273437500,64.0933685302734400,23.1871490478515620,28.2859306335449220,82,123,90,85,57,14723,2157405129,2157786825,2159744173,2148075840,2153519579,2153437421,2154141028,2147743140,1859,1,15,34370
1364513003,5809,98.3700027465820300,23.2409992218017580,35.3698005676269500,243.6959075927734400,62.5473403930664060,23.2349205017089840,28.2326698303222660,81,124,91,85,59,14722,2164542610,2165767625,2169049170,2148294665,2158399259,2158607314,2159073920,2148166025,1112,1,16,64405
1364513058,5806,95.1600036621093800,23.2381992340087900,35.3688011169433600,244.0671997070312500,62.4249992370605500,23.2387008666992200,28.2146701812744140,84,123,92,83,60,14726,2178242413,2181513536,2187834020,2148824192,2168029266,2169126464,2169438518,2149074075,736,2,15,56167
1364513113,5806,91.8399963378906200,23.2985000610351560,35.3652000427246100,244.2178955078125000,60.7242698669433600,23.2912502288818360,28.1869602203369140,79,128,89,85,57,14717,2159335085,2159494637,2160888109,2148158235,2155591350,2155136329,2155199753,2147840850,951,1,16,59339
1364513168,5806,88.7600021362304700,23.3612995147705080,35.3507995605468750,243.9911956787109400,58.4843101501464840,23.3604907989501950,28.1691207885742200,83,127,91,84,57,14712,2161112018,2161331913,2162694354,2148231634,2156976612,2156437988,2156261485,2147941860,902,1,16,51129
1364513225,5810,86.0299987792968800,23.4314994812011720,35.3516006469726560,243.7422943115234400,56.4145812988281250,23.4244804382324220,28.1543006896972660,78,129,92,84,58,14702,2163939748,2164359076,2165817746,2148362706,2159075620,2158507785,2158058258,2148105892,605,2,16,56623
1364513280,5806,83.6100006103515600,23.4701995849609380,35.3555984497070300,243.5236968994140600,55.1420593261718750,23.4638309478759770,28.1480407714843750,81,128,90,84,57,14701,2186444361,2190330139,2195872420,2149530368,2174607808,2175294637,2173813101,2149563821,704,2,16,23474
1364513335,5808,81.3000030517578100,23.4771995544433600,35.3543014526367200,243.5769042968750000,54.7814216613769500,23.4749908447265620,28.1412696838378900,74,128,93,85,57,14701,2167047296,2167561142,2168740699,2148509165,2161557211,2160912100,2159949284,2148285403,934,2,16,496
1364513390,5807,79.0999984741211000,23.5396003723144530,35.3512992858886700,243.3363952636718800,52.7162208557128900,23.5388698577880860,28.1261901855468750,75,126,93,84,59,14702,2171703835,2172565248,2173938697,2148781586,2165167652,2164585526,2163123446,2148585088,1333,1,16,2143
1364513445,5803,77.2099990844726600,23.6109008789062500,35.3563995361328100,243.3798980712890600,50.4370117187500000,23.6093997955322270,28.0960102081298830,73,126,91,86,58,14680,2172398116,2173087323,2174210752,2148853604,2165629376,2164917449,2163125476,2148606390,720,1,16,34144
1364513500,5806,75.3499984741211000,23.6590995788574220,35.3597984313964840,243.5718994140625000,49.0542411804199200,23.6522006988525400,28.0702991485595700,70,127,95,85,57,14704,2171899730,2172162358,2172771163,2148834011,2165753737,2164778331,2162689984,2148572114,20,2,16,62823
1364513579,5807,72.0299987792968800,23.7131004333496100,35.3624000549316400,243.7075042724609400,47.1963500976562500,23.7097206115722660,28.0414009094238280,69,126,92,84,59,14703,2194395062,2196440018,2198402889,2150366418,2184238034,2183590637,2178611428,2150113572,3557,1,16,29793
1364513634,5810,69.0299987792968800,23.7367992401123050,35.3658981323242200,243.9967041015625000,46.4367218017578100,23.7332496643066400,28.0190696716308600,67,127,91,85,59,14687,2179400758,2179366107,2179337590,2149434432,2173197933,2171542857,2167413138,2149068662,3161,2,16,24473
1364513689,5806,65.8199996948242200,23.7488002777099600,35.3670005798339840,244.1961059570312500,45.9196090698242200,23.7492599487304700,28.0039005279541000,68,126,92,86,58,14689,2226377225,2231140013,2234794441,2153466843,2214254930,2213540644,2202622747,2152579538,2666,1,16,6347
1364513744,5807,62.4399986267089840,23.7605991363525400,35.3685989379882800,244.2270965576172000,45.5864982604980500,23.7595806121826170,27.9984397888183600,65,126,93,85,58,14687,2181841243,2181059794,2180049106,2149864685,2176994011,2174374491,2168645961,2149266770,2212,1,16,39768
1364513799,5809,59.0499992370605500,23.7728004455566400,35.3702011108398440,244.4183044433593800,45.2388381958007800,23.7703495025634770,27.9858207702636720,65,127,93,85,56,14690,2187530240,2186428150,2184940013,2150553097,2183027867,2179656978,2172256420,2149703899,1914,1,16,28604
1364513854,5807,55.5699996948242200,23.7821998596191400,35.3694992065429700,244.5915985107422000,44.8128013610839840,23.7835407257080080,27.9727993011474600,67,129,94,84,56,14684,2256001536,2262038052,2265399872,2159657124,2245378358,2242903387,2223820416,2155633782,2005,1,16,58664
1364513911,5805,51.9199981689453100,23.7884998321533200,35.3688011169433600,244.7440032958984400,44.5475616455078100,23.7917594909667970,27.9627799987792970,65,127,92,84,57,14691,2300205412,2308682715,2313181952,2166922980,2286989120,2283091547,2254574381,2159721371,2166,1,16,36402
1364513966,5807,48.4300003051757800,23.7975997924804700,35.3686981201171900,244.7975006103515600,44.1940002441406250,23.8027191162109380,27.9561100006103500,63,127,93,86,56,14686,2318627666,2326738477,2330600969,2171401069,2306660964,2301504310,2268172525,2161757120,2387,1,16,34752
1364514021,5809,44.9399986267089840,23.8617992401123050,35.3706016540527340,244.6336059570312500,42.0459899902343750,23.8692703247070300,27.9366798400878900,59,126,91,86,51,14690,2320846893,2327918372,2331458587,2175480932,2316793590,2310169965,2273099108,2162972297,2532,2,16,39563
1364514076,5810,41.6300010681152340,23.8817005157470700,35.3771018981933600,244.9400024414062500,41.5522804260253900,23.8845691680908200,27.9171390533447270,57,129,92,85,58,14684,2234454299,2232241929,2228982253,2160136923,2235140333,2226259181,2204746322,2154376301,2886,1,16,11174
1364514131,5808,38.3400001525878900,23.9108009338378900,35.3422012329101560,244.4017028808593800,40.6054916381835940,23.9139194488525400,27.9291305541992200,55,128,90,85,56,14697,2240536548,2237632905,2233931766,2162777088,2243352182,2232859081,2208515629,2155300544,3176,1,16,5617
1364514186,5810,35.3600006103515600,23.9230003356933600,35.3241996765136700,243.7227020263672000,40.0503196716308600,23.9311199188232420,27.9520206451416000,55,124,91,84,57,14693,2380273865,2388359222,2395971401,2203887597,2387281572,2374427675,2317794020,2173355894,119,2,16,25175
1364514261,5809,31.8500003814697270,23.9239997863769530,35.3191986083984400,243.2819976806640600,39.7442588806152340,23.9406108856201170,27.9677391052246100,53,122,93,85,58,14696,2403202304,2413752054,2424907794,2219145910,2412552877,2397761828,2334194514,2178066185,3532,2,16,377
1364514316,5808,29.7099990844726560,23.9260997772216800,35.3182983398437500,243.1549987792968800,39.5418586730957000,23.9468898773193360,27.9709491729736330,53,121,92,83,56,14693,2417385426,2428498806,2440190336,2231273901,2426459044,2408415332,2340277897,2180136182,3355,1,16,43346
1364514371,5808,27.5799999237060550,23.9255008697509770,35.3182983398437500,243.0370941162109400,39.6818008422851560,23.9425506591796880,27.9777698516845700,53,121,92,84,55,14697,2301410724,2300687753,2300372251,2190882596,2327007296,2308610898,2261890697,2165750738,3318,2,15,39133
1364514426,5810,25.4300003051757800,23.9263992309570300,35.3185997009277340,242.9465942382812500,39.7501602172851560,23.9404296875000000,27.9826393127441400,53,121,89,84,57,14701,2296624813,2295692672,2295905472,2193483401,2324930249,2305578212,2258934994,2166116379,3139,0,15,3658
